Location: Gourdan-Polignan
(43.0709°N, 0.5748°E)
Time: 20:46:58
(UTC+00:00)

Cosmos 1437 Rocket - Pass Details

Date: 15 May 2026
Orbit: 439 x 476 km, 81.2° (Epoch: 7 June)

Event Time Altitude Azimuth Distance (km) Brightness Sun altitude
Exits shadow 21:37:01 14° 230° (SW) 1,393 4.8 -20.4°
Maximum altitude 21:39:31 29° 286° (WNW) 885 4.3 -20.6°
Drops below altitude 10° 21:42:43 10° 349° (NNW) 1,646 6.2 -20.9°
Sets 21:45:01 0° 0° (N) 2,534 7.1 -21.2°
